Location: Bremen
(53.0793°N, 8.8017°E)
Time: 23:19:29
(UTC+02:00)

Vanguard 2 Rocket - Pass Details

Date: 13 April 2024
Orbit: 556 x 3304 km, 32.9° (Epoch: 20 May)

Event Time Altitude Azimuth Distance (km) Brightness Sun altitude
Rises 01:24:21 0° 230° (SW) 7,206 11.1 -27.8°
Enters shadow 01:25:29 - 228° (SW) 7,010 11.1 -27.8°
Reaches altitude 10° 01:29:54 10° 222° (SW) 6,254 - -27.8°
Maximum altitude 01:46:08 33° 168° (SSE) 4,250 - -27.6°
Exits shadow 01:47:40 33° 160° (SSE) 4,199 9.7 -27.6°
Drops below altitude 10° 01:59:03 10° 112° (ESE) 4,996 10.5 -27.4°
Sets 02:02:50 0° 104° (ESE) 5,646 10.9 -27.3°
